User: anonymous   Login
Location: Brno
(49.2000°N, 16.6330°E)
Time: 17:16:30
(UTC+02:00)
Language:

Cosmos 332 Rocket - Orbit

View from above orbital plane
View from above orbital plane
View from above satellite
View from above satellite

Ground track
Ground track

The orbit data is extracted from the following two-line orbital elements,

1 04370U 70028B   14298.07488726  .00001044  00000-0  22716-3 0  7793
2 04370 074.0388 131.2881 0016780 294.0770 209.8205 14.59226498871025
Epoch (UTC): 25 October 2014 01:47:50
Eccentricity: 0.0016780
inclination: 74.0388°
perigee height: 684 km
apogee height: 707 km
right ascension of ascending node: 131.2881°
argument of perigee: 294.0770°
revolutions per day: 14.59226498
mean anomaly at epoch: 209.8205°
orbit number at epoch: 87102

The dashed part of the orbit path shows where the satellite is in the earth's shadow,  

DLR